DW4207 Weather Reports


Display with metric or nautical units.
time (UTC)temp
F
wind
direction
speed
MPH
gust
MPH
rain 1hr
in
rain 24hr
in
rain mn
in
humidity
%
barometer
mb
20260904015004 80 0 0.0 0.0 0.00 0.00 0.00 84 1015.3
20260904014025 80 0 0.0 0.0 0.00 0.00 0.00 85 1015.3
20260904013004 80 0 0.0 0.0 0.00 0.00 0.00 84 1015.2
20260904012004 80 0 0.0 0.0 0.00 0.00 0.00 83 1015.0
20260904011004 81 0 0.0 0.0 0.00 0.00 0.00 82 1015.0
20260904010004 82 0 0.0 0.0 0.00 0.00 0.00 80 1015.0
20260904005025 83 0 0.0 0.0 0.00 0.00 0.00 78 1015.0
20260904004025 83 0 0.0 0.0 0.00 0.00 0.00 79 1014.9
20260904003004 84 0 0.0 0.0 0.00 0.00 0.00 77 1014.7
20260904002004 85 0 0.0 0.0 0.00 0.00 0.00 72 1014.5
20260904001004 85 0 0.0 0.0 0.00 0.00 0.00 72 1014.4
20260904000004 87 0 0.0 0.0 0.00 0.00 0.00 69 1014.4
20260903235004 87 0 0.0 0.0 0.00 0.00 0.00 69 1014.5
20260903234004 88 0 0.0 0.0 0.00 0.00 0.00 66 1014.5
20260903233004 89 223 1.0 3.0 0.00 0.00 0.00 64 1014.5
20260903232004 89 219 2.0 4.0 0.00 0.00 0.00 63 1014.5
20260903231025 90 207 3.0 6.0 0.00 0.00 0.00 62 1014.3
20260903230025 90 224 2.0 5.0 0.00 0.00 0.00 61 1014.2
20260903225004 91 221 3.0 8.0 0.00 0.00 0.00 61 1014.0
20260903224004 91 213 2.0 7.0 0.00 0.00 0.00 61 1014.1
20260903223004 91 222 4.0 8.0 0.00 0.00 0.00 60 1014.1
20260903222004 92 228 3.0 8.0 0.00 0.00 0.00 59 1014.2
20260903221004 92 222 4.0 10.0 0.00 0.00 0.00 60 1014.3
20260903220004 92 222 4.0 10.0 0.00 0.00 0.00 58 1014.3
20260903215025 92 246 4.0 8.0 0.00 0.00 0.00 57 1014.2
20260903214004 92 242 4.0 9.0 0.00 0.00 0.00 56 1014.2
20260903213004 92 230 5.0 12.0 0.00 0.00 0.00 56 1014.2
20260903212004 92 220 6.0 12.0 0.00 0.00 0.00 57 1014.2
20260903211004 93 234 5.0 12.0 0.00 0.00 0.00 55 1014.2
20260903210004 93 232 4.0 12.0 0.00 0.00 0.00 55 1014.2
20260903205025 93 228 6.0 13.0 0.00 0.00 0.00 55 1014.2
20260903204004 93 229 4.0 10.0 0.00 0.00 0.00 55 1014.2
20260903203004 93 219 5.0 9.0 0.00 0.00 0.00 55 1014.3
20260903202004 93 203 4.0 10.0 0.00 0.00 0.00 55 1014.5
20260903201004 94 224 5.0 16.0 0.00 0.00 0.00 55 1014.6
20260903200004 93 227 6.0 16.0 0.00 0.00 0.00 56 1014.7
20260903195003 93 229 5.0 11.0 0.00 0.00 0.00 55 1014.9
20260903194004 93 233 4.0 10.0 0.00 0.00 0.00 54 1015.0
20260903193003 93 255 4.0 9.0 0.00 0.00 0.00 58 1015.3
20260903192025 94 211 5.0 12.0 0.00 0.00 0.00 56 1015.4
20260903191025 93 226 4.0 9.0 0.00 0.00 0.00 57 1015.5
20260903190004 93 216 4.0 9.0 0.00 0.00 0.00 56 1015.6
20260903185004 93 222 5.0 10.0 0.00 0.00 0.00 56 1015.6
20260903184004 93 245 5.0 9.0 0.00 0.00 0.00 56 1015.6
20260903183004 93 244 5.0 11.0 0.00 0.00 0.00 54 1015.6
20260903182004 93 240 5.0 11.0 0.00 0.00 0.00 57 1015.6
20260903181004 93 213 3.0 9.0 0.00 0.00 0.00 56 1015.6
20260903180004 93 227 4.0 11.0 0.00 0.00 0.00 58 1015.7
20260903175004 92 216 6.0 11.0 0.00 0.00 0.00 58 1015.8
20260903174004 92 205 5.0 10.0 0.00 0.00 0.00 59 1015.8
20260903173004 92 220 4.0 9.0 0.00 0.00 0.00 56 1015.9
20260903172004 92 223 6.0 10.0 0.00 0.00 0.00 57 1016.0
20260903171025 92 206 6.0 11.0 0.00 0.00 0.00 58 1016.1
20260903170004 91 217 6.0 12.0 0.00 0.00 0.00 57 1016.2
20260903165004 91 222 6.0 12.0 0.00 0.00 0.00 59 1016.3
20260903164025 91 223 5.0 16.0 0.00 0.00 0.00 59 1016.4
20260903163025 91 233 4.0 11.0 0.00 0.00 0.00 57 1016.5
20260903162004 91 235 5.0 14.0 0.00 0.00 0.00 59 1016.6
20260903161003 90 217 4.0 8.0 0.00 0.00 0.00 62 1016.7
20260903160004 90 199 4.0 10.0 0.00 0.00 0.00 63 1016.7
20260903155004 90 221 4.0 10.0 0.00 0.00 0.00 66 1016.7
20260903154004 90 211 3.0 8.0 0.00 0.00 0.00 63 1016.7
20260903153025 89 224 5.0 10.0 0.00 0.00 0.00 65 1016.7
20260903152025 89 230 4.0 9.0 0.00 0.00 0.00 65 1016.6
20260903151004 88 235 5.0 11.0 0.00 0.00 0.00 67 1016.6
20260903150004 88 223 4.0 8.0 0.00 0.00 0.00 66 1016.6
20260903145003 88 222 4.0 9.0 0.00 0.00 0.00 67 1016.6
20260903144004 87 216 4.0 11.0 0.00 0.00 0.00 66 1016.6
20260903143004 86 212 4.0 8.0 0.00 0.00 0.00 69 1016.5
20260903142004 86 195 3.0 8.0 0.00 0.00 0.00 69 1016.5
20260903141004 85 216 4.0 8.0 0.00 0.00 0.00 71 1016.6
20260903140025 85 213 3.0 7.0 0.00 0.00 0.00 72 1016.6
20260903135004 84 215 3.0 7.0 0.00 0.00 0.00 72 1016.7
20260903134025 84 203 3.0 7.0 0.00 0.00 0.00 74 1016.7
20260903133003 83 217 3.0 8.0 0.00 0.00 0.00 73 1016.9
20260903132004 82 209 2.0 5.0 0.00 0.00 0.00 74 1017.0
20260903131004 82 208 1.0 3.0 0.00 0.00 0.00 74 1017.0
20260903130004 81 211 2.0 5.0 0.00 0.00 0.00 77 1017.0
20260903125004 80 206 2.0 4.0 0.00 0.00 0.00 77 1017.1
20260903124003 80 196 1.0 3.0 0.00 0.00 0.00 77 1017.1
20260903123004 79 202 1.0 4.0 0.00 0.00 0.00 79 1017.1
20260903122004 78 208 2.0 3.0 0.00 0.00 0.00 80 1017.0
20260903121004 78 182 1.0 3.0 0.00 0.00 0.00 80 1017.0
20260903120004 77 156 1.0 4.0 0.00 0.00 0.00 81 1017.0
20260903115004 77 159 1.0 3.0 0.00 0.00 0.00 81 1016.9
20260903114004 77 161 1.0 3.0 0.00 0.00 0.00 80 1016.9
20260903113004 77 158 1.0 2.0 0.00 0.00 0.00 80 1016.7
20260903112004 77 148 0.0 1.0 0.00 0.00 0.00 80 1016.7
20260903111024 78 213 1.0 3.0 0.00 0.00 0.00 79 1016.7
20260903110004 78 183 0.0 2.0 0.00 0.00 0.00 80 1016.6
20260903105003 78 208 1.0 3.0 0.00 0.00 0.00 78 1016.5
20260903104004 78 211 1.0 4.0 0.00 0.00 0.00 77 1016.5
20260903103004 78 229 1.0 3.0 0.00 0.00 0.00 77 1016.4
20260903102003 79 230 1.0 4.0 0.00 0.00 0.00 76 1016.4
20260903101025 78 224 2.0 4.0 0.00 0.00 0.00 76 1016.3
20260903100004 79 201 1.0 4.0 0.00 0.00 0.00 76 1016.4
20260903095003 79 185 1.0 3.0 0.00 0.00 0.00 75 1016.3
20260903094004 80 200 2.0 5.0 0.00 0.00 0.00 74 1016.3
20260903093004 80 214 2.0 5.0 0.00 0.00 0.00 74 1016.4
20260903092004 80 217 2.0 4.0 0.00 0.00 0.00 74 1016.3
20260903091024 79 218 2.0 4.0 0.00 0.00 0.00 75 1016.3
20260903090004 79 209 1.0 3.0 0.00 0.00 0.00 75 1016.3
20260903085004 79 220 1.0 4.0 0.00 0.00 0.00 76 1016.3
20260903084025 79 212 1.0 4.0 0.00 0.00 0.00 76 1016.3
20260903083004 79 216 2.0 4.0 0.00 0.00 0.00 77 1016.3
20260903082003 79 208 1.0 3.0 0.00 0.00 0.00 78 1016.3
20260903081003 79 204 1.0 3.0 0.00 0.00 0.00 78 1016.3
20260903080004 79 188 1.0 3.0 0.00 0.00 0.00 78 1016.3
20260903075004 79 202 1.0 3.0 0.00 0.00 0.00 78 1016.3
20260903074024 79 196 1.0 3.0 0.00 0.00 0.00 78 1016.3
20260903073004 79 202 1.0 3.0 0.00 0.00 0.00 78 1016.3
20260903072025 80 212 2.0 4.0 0.00 0.00 0.00 77 1016.2
20260903071004 80 209 1.0 4.0 0.00 0.00 0.00 78 1016.2
20260903070004 80 213 1.0 3.0 0.00 0.00 0.00 78 1016.3
20260903065003 80 216 1.0 3.0 0.00 0.00 0.00 78 1016.2
20260903064004 80 199 1.0 3.0 0.00 0.00 0.00 78 1016.3
20260903063003 80 200 1.0 3.0 0.00 0.00 0.00 78 1016.3
20260903062025 80 208 2.0 4.0 0.00 0.00 0.00 78 1016.3
20260903061024 80 215 1.0 3.0 0.00 0.00 0.00 79 1016.3
20260903060004 80 200 1.0 3.0 0.00 0.00 0.00 79 1016.2
20260903055004 80 167 0.0 3.0 0.00 0.00 0.00 79 1016.1
20260903054024 80 163 1.0 3.0 0.00 0.00 0.00 79 1016.2
20260903053004 80 165 1.0 4.0 0.00 0.00 0.00 79 1016.1
20260903052003 80 173 1.0 5.0 0.00 0.00 0.00 79 1016.0
20260903051004 80 157 0.0 3.0 0.00 0.00 0.00 80 1015.9
20260903050004 80 170 0.0 1.0 0.00 0.00 0.00 80 1015.8
20260903045004 80 0 0.0 0.0 0.00 0.00 0.00 80 1015.8
20260903044003 80 0 0.0 0.0 0.00 0.00 0.00 80 1015.8
20260903043004 80 0 0.0 0.0 0.00 0.00 0.00 80 1015.7
20260903042003 80 0 0.0 0.0 0.00 0.00 0.00 79 1015.8
20260903041003 80 0 0.0 0.0 0.00 0.00 0.00 79 1015.8
20260903040004 81 0 0.0 0.0 0.00 0.00 0.00 79 1015.8
20260903035004 81 0 0.0 0.0 0.00 0.00 0.00 78 1015.7
20260903034003 81 0 0.0 0.0 0.00 0.00 0.00 78 1015.8
20260903033003 82 0 0.0 0.0 0.00 0.00 0.00 78 1015.8
20260903032003 82 0 0.0 0.0 0.00 0.00 0.00 78 1015.9
20260903031003 82 0 0.0 0.0 0.00 0.00 0.00 78 1015.9
20260903030004 80 0 0.0 0.0 0.00 0.00 0.00 80 1015.8
20260903025003 80 0 0.0 0.0 0.00 0.00 0.00 82 1016.0
20260903024003 79 0 0.0 0.0 0.00 0.00 0.00 83 1016.0
20260903023003 79 0 0.0 0.0 0.00 0.00 0.00 83 1016.0
20260903022003 79 0 0.0 0.0 0.00 0.00 0.00 83 1015.9
20260903021024 80 0 0.0 0.0 0.00 0.00 0.00 82 1015.9
20260903020003 81 0 0.0 0.0 0.00 0.00 0.00 79 1015.8